{"data":{"norad_id":66134,"intl_designator":"2025-237W","name":"STARLINK-35525","alt_names":[],"object_type":"PAYLOAD","status":"ACTIVE","operator":null,"country":"US","launch_date":"2025-10-22","launch_site_code":"AFWTR","launch_vehicle":null,"mission":null,"orbit_class":"UNKNOWN","rcs_meters":null,"size_class":null,"mass_kg":null,"dimensions":null,"purposes":["comms"],"wikipedia_slug":null,"has_3d_model":false,"image_url":null,"decayed_at":null,"tle_current":{"epoch":"2026-05-25T03:46:44.993280Z","epoch_age_seconds":62280,"freshness":"FRESH","line1":"1 66134U 25237W   26145.15746520  .00023399  00000+0  79913-3 0  9994","line2":"2 66134  53.1591  44.7500 0001179 115.9909 244.1213 15.30221873 34318","mean_motion":15.30221873,"eccentricity":0.0001179,"inclination_deg":53.1591,"raan_deg":44.75,"arg_perigee_deg":115.9909,"mean_anomaly_deg":244.1213,"bstar":0.00079913,"rev_number":3431,"period_min":94.104000564106,"perigee_km":474.34175885273,"apogee_km":475.95776387106,"semimajor_km":6853.2867613619,"source":"CELESTRAK","updated_at":"2026-05-25T13:38:21.066254Z"}}}